Milford, UT

11:33 AM MDT on September 16, 2019 (GMT -0600)
Milford Municipal

Weather History for KMLF - August, 2019

Change the Weather History Date:

Wednesday, August 21, 2019

  Actual Average Record
Temperature  
Mean Temperature 75 °F -  
Max Temperature 99 °F 88 °F 96 °F (2007)
Min Temperature 52 °F 53 °F 48 °F (1996)
Cooling Degree Days 10    
Growing Degree Days 25 (Base 50)    
Moisture  
Dew Point 18 °F    
Average Humidity 10    
Maximum Humidity 28    
Minimum Humidity 4    
Precipitation  
Precipitation 0.00 in - - ()
Sea Level Pressure  
Sea Level Pressure 29.96 in    
Wind  
Wind Speed 13 mph ()    
Max Wind Speed 20 mph    
Max Gust Speed 26 mph    
Visibility 10.0 miles    
Events      
Averages and records for this station are not official NWS values.
T = Trace of Precipitation, MM = Missing Value Source: Averaged Metar Reports

Daily Weather History Graph

Daily Weather History Graph

Search for Another Location

Airport or City:

Astronomy

Aug. 21, 2019 Rise Set
Actual Time 6:51 AM MDT 8:18 PM MDT
Civil Twilight 6:23 AM MDT 8:45 PM MDT
Nautical Twilight 5:50 AM MDT 9:19 PM MDT
Astronomical Twilight 5:15 AM MDT 9:54 PM MDT
Moon 11:42 PM MDT (8/21) 12:27 PM MDT (8/21)
Length of Visible Light 14h 22m
Length of Day
13h 26m
Waning Gibbous, 68% of the Moon is Illuminated
Aug 21
Waning Gibbous
Aug 23
Last Quarter
Aug 30
New
Sep 5
First Quarter
Sep 13
Full

Hourly Weather History & Observations

Time (MDT) Temp. Dew Point Humidity Pressure Visibility Wind Dir Wind Speed Gust Speed Precip Events Conditions
12:52 AM 66.0 °F 16.0 °F 15% 29.87 in 10.0 mi SW 11.5 mph - N/A   Clear
1:52 AM 64.0 °F 16.0 °F 16% 29.87 in 10.0 mi SW 9.2 mph - N/A   Clear
2:52 AM 57.9 °F 19.9 °F 23% 29.88 in 10.0 mi SSW 9.2 mph - N/A   Clear
3:35 AM 61.0 °F 21.9 °F 22% 30.08 in 10.0 mi SSW 15.0 mph - N/A   Clear
3:44 AM 60.1 °F 24.1 °F 25% 30.08 in 10.0 mi SSW 13.8 mph - N/A   Clear
3:46 AM 60.1 °F 24.1 °F 25% 30.08 in 10.0 mi SSW 15.0 mph - N/A   Clear
3:48 AM 60.8 °F 24.8 °F 25% 30.08 in 10.0 mi SSW 15.0 mph - N/A   Clear
3:50 AM 60.8 °F 24.8 °F 25% 30.08 in 10.0 mi SSW 13.8 mph - N/A   Clear
3:52 AM 59.0 °F 24.1 °F 26% 29.86 in 10.0 mi SSW 13.8 mph - N/A   Clear
3:59 AM 59.0 °F 24.1 °F 26% 30.09 in 10.0 mi SSW 15.0 mph - N/A   Clear
4:01 AM 59.0 °F 24.1 °F 26% 30.09 in 10.0 mi SSW 13.8 mph - N/A   Clear
4:03 AM 59.0 °F 24.8 °F 27% 30.09 in 10.0 mi SSW 13.8 mph - N/A   Clear
4:05 AM 59.0 °F 24.1 °F 26% 30.09 in 10.0 mi SSW 11.5 mph - N/A   Clear
4:52 AM 55.9 °F 21.9 °F 27% 29.89 in 10.0 mi South 8.1 mph - N/A   Clear
5:52 AM 52.0 °F 19.9 °F 28% 29.90 in 10.0 mi South 10.4 mph - N/A   Clear
6:16 AM 55.9 °F 19.0 °F 24% 30.10 in 10.0 mi South 11.5 mph - N/A   Clear
6:52 AM 52.0 °F 19.9 °F 28% 29.91 in 10.0 mi South 10.4 mph - N/A   Clear
7:52 AM 57.9 °F 21.0 °F 24% 29.91 in 10.0 mi South 6.9 mph - N/A   Clear
8:52 AM 66.0 °F 26.1 °F 22% 29.92 in 10.0 mi South 9.2 mph - N/A   Clear
9:52 AM 78.1 °F 28.9 °F 17% 29.90 in 10.0 mi South 9.2 mph - N/A   Clear
10:52 AM 86.0 °F 24.1 °F 10% 29.89 in 10.0 mi SSW 11.5 mph - N/A   Clear
11:32 AM 89.1 °F 23.0 °F 9% 30.11 in 10.0 mi South 13.8 mph - N/A   Clear
11:34 AM 89.1 °F 23.0 °F 9% 30.11 in 10.0 mi South 12.7 mph - N/A   Clear
11:39 AM 89.1 °F 23.0 °F 9% 30.11 in 10.0 mi South 12.7 mph - N/A   Clear
11:44 AM 89.1 °F 23.0 °F 9% 30.11 in 10.0 mi SSW 13.8 mph - N/A   Clear
11:46 AM 90.0 °F 23.0 °F 9% 30.11 in 10.0 mi SSW 12.7 mph - N/A   Clear
11:48 AM 89.6 °F 23.0 °F 9% 30.11 in 10.0 mi SSW 13.8 mph - N/A   Clear
11:50 AM 89.6 °F 23.0 °F 9% 30.11 in 10.0 mi South 13.8 mph - N/A   Clear
11:52 AM 90.0 °F 23.0 °F 9% 29.88 in 10.0 mi South 12.7 mph - N/A   Clear
11:59 AM 90.0 °F 21.9 °F 8% 30.10 in 10.0 mi South 15.0 mph - N/A   Clear
12:01 PM 90.0 °F 23.0 °F 9% 30.10 in 10.0 mi South 12.7 mph - N/A   Clear
12:03 PM 90.0 °F 23.0 °F 9% 30.10 in 10.0 mi South 12.7 mph - N/A   Clear
12:05 PM 90.0 °F 23.0 °F 9% 30.10 in 10.0 mi South 12.7 mph - N/A   Clear
12:14 PM 89.6 °F 23.0 °F 9% 30.09 in 10.0 mi South 12.7 mph - N/A   Clear
12:21 PM 91.0 °F 23.0 °F 8% 30.09 in 10.0 mi South 10.4 mph - N/A   Clear
12:52 PM 93.0 °F 19.9 °F 7% 29.85 in 10.0 mi South 13.8 mph - N/A   Clear
1:52 PM 96.1 °F 19.0 °F 6% 29.82 in 10.0 mi South 13.8 mph 19.6 mph N/A   Clear
2:19 PM 95.0 °F 19.0 °F 6% 30.04 in 10.0 mi SSW 15.0 mph 20.7 mph N/A   Clear
2:52 PM 96.1 °F 18.0 °F 6% 29.81 in 10.0 mi South 12.7 mph 23.0 mph N/A   Clear
3:17 PM 97.0 °F 16.0 °F 5% 30.01 in 10.0 mi SSE 12.7 mph - N/A   Clear
3:52 PM 98.1 °F 14.0 °F 5% 29.77 in 10.0 mi SSW 13.8 mph 23.0 mph N/A   Clear
4:16 PM 98.1 °F 12.9 °F 4% 29.98 in 10.0 mi South 15.0 mph 24.2 mph N/A   Clear
4:18 PM 98.1 °F 12.9 °F 4% 29.98 in 10.0 mi South 16.1 mph 24.2 mph N/A   Clear
4:20 PM 98.1 °F 14.0 °F 5% 29.98 in 10.0 mi South 13.8 mph 24.2 mph N/A   Clear
4:52 PM 98.1 °F 14.0 °F 5% 29.75 in 10.0 mi SSW 17.3 mph 26.5 mph N/A   Clear
4:59 PM 98.1 °F 12.0 °F 4% 29.97 in 10.0 mi SSW 18.4 mph 26.5 mph N/A   Clear
5:01 PM 98.1 °F 10.0 °F 4% 29.97 in 10.0 mi SSW 17.3 mph 24.2 mph N/A   Clear
5:03 PM 98.1 °F 9.0 °F 4% 29.96 in 10.0 mi South 13.8 mph 24.2 mph N/A   Clear
5:05 PM 97.0 °F 9.0 °F 4% 29.96 in 10.0 mi South 13.8 mph 24.2 mph N/A   Clear
5:31 PM 97.0 °F 14.0 °F 5% 29.96 in 10.0 mi SSW 15.0 mph 20.7 mph N/A   Clear
5:36 PM 98.6 °F 12.2 °F 4% 29.95 in 10.0 mi South 12.7 mph 20.7 mph N/A   Clear
5:52 PM 97.0 °F 17.1 °F 5% 29.74 in 10.0 mi SSW 18.4 mph 24.2 mph N/A   Clear
5:59 PM 96.1 °F 17.1 °F 6% 29.95 in 10.0 mi SSW 17.3 mph - N/A   Clear
6:01 PM 96.1 °F 17.1 °F 6% 29.95 in 10.0 mi SSW 18.4 mph 26.5 mph N/A   Clear
6:03 PM 96.8 °F 17.6 °F 6% 29.95 in 10.0 mi South 19.6 mph 26.5 mph N/A   Clear
6:05 PM 96.1 °F 18.0 °F 6% 29.95 in 10.0 mi SSW 19.6 mph 26.5 mph N/A   Clear
6:14 PM 95.0 °F 18.0 °F 6% 29.95 in 10.0 mi SSW 16.1 mph 24.2 mph N/A   Clear
6:16 PM 95.0 °F 17.1 °F 6% 29.95 in 10.0 mi SSW 18.4 mph 24.2 mph N/A   Clear
6:18 PM 95.0 °F 18.0 °F 6% 29.95 in 10.0 mi SSW 17.3 mph 24.2 mph N/A   Clear
6:20 PM 95.0 °F 18.0 °F 6% 29.95 in 10.0 mi SSW 15.0 mph 24.2 mph N/A   Clear
6:29 PM 95.0 °F 17.1 °F 6% 29.95 in 10.0 mi SSW 18.4 mph - N/A   Clear
6:33 PM 95.0 °F 17.1 °F 6% 29.95 in 10.0 mi SSW 16.1 mph - N/A   Clear
6:35 PM 95.0 °F 17.1 °F 6% 29.95 in 10.0 mi SSW 18.4 mph - N/A   Clear
6:44 PM 95.0 °F 17.1 °F 6% 29.95 in 10.0 mi SSW 13.8 mph - N/A   Clear
6:48 PM 95.0 °F 17.6 °F 6% 29.94 in 10.0 mi SSW 17.3 mph - N/A   Clear
6:50 PM 95.0 °F 17.6 °F 6% 29.94 in 10.0 mi SSW 15.0 mph - N/A   Clear
6:52 PM 95.0 °F 16.0 °F 6% 29.74 in 10.0 mi SSW 17.3 mph - N/A   Clear
6:59 PM 93.9 °F 16.0 °F 6% 29.94 in 10.0 mi SSW 15.0 mph - N/A   Clear
7:01 PM 93.9 °F 17.1 °F 6% 29.94 in 10.0 mi SSW 16.1 mph - N/A   Clear
7:03 PM 93.9 °F 17.1 °F 6% 29.94 in 10.0 mi SSW 13.8 mph - N/A   Clear
7:05 PM 93.9 °F 17.1 °F 6% 29.94 in 10.0 mi SSW 15.0 mph - N/A   Clear
7:14 PM 93.0 °F 16.0 °F 6% 29.94 in 10.0 mi SSW 16.1 mph - N/A   Clear
7:16 PM 93.0 °F 16.0 °F 6% 29.94 in 10.0 mi SW 18.4 mph - N/A   Clear
7:18 PM 93.0 °F 16.0 °F 6% 29.94 in 10.0 mi SW 18.4 mph - N/A   Clear
7:20 PM 93.0 °F 16.0 °F 6% 29.94 in 10.0 mi SW 15.0 mph - N/A   Clear
7:29 PM 93.0 °F 15.1 °F 6% 29.94 in 10.0 mi SW 16.1 mph 21.9 mph N/A   Clear
7:31 PM 91.9 °F 15.1 °F 6% 29.94 in 10.0 mi SW 12.7 mph - N/A   Clear
7:33 PM 91.9 °F 15.1 °F 6% 29.94 in 10.0 mi SW 13.8 mph - N/A   Clear
7:35 PM 91.9 °F 16.0 °F 6% 29.94 in 10.0 mi SSW 12.7 mph - N/A   Clear
7:44 PM 91.0 °F 16.0 °F 6% 29.95 in 10.0 mi SSW 12.7 mph - N/A   Clear
7:46 PM 91.0 °F 16.0 °F 6% 29.95 in 10.0 mi SSW 13.8 mph - N/A   Clear
7:48 PM 89.6 °F 15.8 °F 7% 29.95 in 10.0 mi SSW 12.7 mph - N/A   Clear
7:50 PM 89.6 °F 15.8 °F 7% 29.95 in 10.0 mi SSW 12.7 mph - N/A   Clear
7:52 PM 90.0 °F 16.0 °F 7% 29.74 in 10.0 mi SSW 12.7 mph - N/A   Clear
7:59 PM 88.0 °F 17.1 °F 7% 29.95 in 10.0 mi SSW 12.7 mph - N/A   Clear
8:01 PM 88.0 °F 17.1 °F 7% 29.95 in 10.0 mi SSW 15.0 mph - N/A   Clear
8:03 PM 87.8 °F 15.8 °F 7% 29.95 in 10.0 mi SSW 15.0 mph - N/A   Clear
8:05 PM 88.0 °F 16.0 °F 7% 29.95 in 10.0 mi SSW 13.8 mph - N/A   Clear
8:14 PM 87.1 °F 16.0 °F 7% 29.95 in 10.0 mi SSW 13.8 mph - N/A   Clear
8:16 PM 87.1 °F 16.0 °F 7% 29.95 in 10.0 mi SSW 13.8 mph - N/A   Clear
8:18 PM 87.8 °F 15.8 °F 7% 29.95 in 10.0 mi SSW 13.8 mph - N/A   Clear
8:20 PM 87.1 °F 16.0 °F 7% 29.95 in 10.0 mi SSW 12.7 mph - N/A   Clear
8:29 PM 84.0 °F 16.0 °F 8% 29.96 in 10.0 mi SSW 12.7 mph - N/A   Clear
8:31 PM 84.0 °F 16.0 °F 8% 29.96 in 10.0 mi SSW 12.7 mph - N/A   Clear
8:33 PM 82.4 °F 15.8 °F 8% 29.96 in 10.0 mi SSW 12.7 mph - N/A   Clear
8:35 PM 82.9 °F 16.0 °F 8% 29.96 in 10.0 mi SSW 12.7 mph - N/A   Clear
8:44 PM 82.9 °F 16.0 °F 8% 29.96 in 10.0 mi SSW 12.7 mph - N/A   Clear
8:46 PM 82.9 °F 16.0 °F 8% 29.97 in 10.0 mi SSW 11.5 mph - N/A   Clear
8:48 PM 82.4 °F 15.8 °F 8% 29.97 in 10.0 mi SSW 11.5 mph - N/A   Clear
8:50 PM 82.4 °F 15.8 °F 8% 29.97 in 10.0 mi SSW 11.5 mph - N/A   Clear
8:52 PM 82.0 °F 16.0 °F 8% 29.76 in 10.0 mi SSW 11.5 mph - N/A   Clear
9:52 PM 78.1 °F 19.0 °F 11% 29.76 in 10.0 mi South 10.4 mph - N/A   Clear
10:52 PM 77.0 °F 19.0 °F 11% 29.73 in 10.0 mi South 12.7 mph - N/A   Clear
11:02 PM 77.0 °F 19.0 °F 11% 29.97 in 10.0 mi South 12.7 mph - N/A   Clear
11:04 PM 77.0 °F 19.0 °F 11% 29.97 in 10.0 mi South 12.7 mph - N/A   Clear
11:09 PM 77.0 °F 19.0 °F 11% 29.97 in 10.0 mi South 13.8 mph - N/A   Clear
11:14 PM 77.0 °F 18.0 °F 11% 29.97 in 10.0 mi South 12.7 mph - N/A   Clear
11:16 PM 77.0 °F 18.0 °F 11% 29.97 in 10.0 mi South 13.8 mph - N/A   Clear
11:18 PM 78.1 °F 18.0 °F 10% 29.97 in 10.0 mi South 13.8 mph - N/A   Clear
11:20 PM 78.1 °F 18.0 °F 10% 29.97 in 10.0 mi South 15.0 mph - N/A   Clear
11:29 PM 78.1 °F 17.1 °F 10% 29.96 in 10.0 mi South 13.8 mph - N/A   Clear
11:31 PM 78.1 °F 17.1 °F 10% 29.96 in 10.0 mi South 12.7 mph - N/A   Clear
11:33 PM 77.0 °F 17.1 °F 10% 29.96 in 10.0 mi South 12.7 mph - N/A   Clear
11:35 PM 77.0 °F 17.1 °F 10% 29.96 in 10.0 mi SSW 12.7 mph - N/A   Clear
11:44 PM 75.9 °F 17.1 °F 11% 29.96 in 10.0 mi South 12.7 mph - N/A   Clear
11:46 PM 75.9 °F 17.1 °F 11% 29.96 in 10.0 mi South 12.7 mph - N/A   Clear
11:48 PM 75.2 °F 17.6 °F 11% 29.96 in 10.0 mi South 12.7 mph - N/A   Clear
11:50 PM 75.2 °F 17.6 °F 11% 29.96 in 10.0 mi SSW 12.7 mph - N/A   Clear
11:52 PM 75.0 °F 17.1 °F 11% 29.72 in 10.0 mi SSW 11.5 mph - N/A   Clear
11:59 PM 73.4 °F 17.6 °F 12% 29.96 in 10.0 mi South 11.5 mph - N/A   Clear